Date String (YYYY-MM-DD hh:mm:ss) UTC,Instrument flags,absolute air pressure of the measurement (hPa),sample flow rate (lpm),inlet stack bypass flow (lpm),air temperature of the measurement (°C),ambient temperature measured by the external sensor (°C),aerosol sample conditioner tube jacket temperature (°C),OPC LED temperature (°C),internal box temperature (°C),relative humidity of the measurement (%),span deviation,mass concentration of particles derived from Lorenz-Mie calculation of OPC scattering (μg/m³),mass concentration of particles derived from Lorenz-Mie calculation of OPC scattering (μg/m³),mass concentration of particles derived from Lorenz-Mie calculation of OPC scattering (μg/m³)
DateTimeUTC,F1_M11,P_M11,Q1_M11,Q2_M11,T1_M11,T2_M11,T3_M11,T4_M11,T5_M11,U1_M11,ZSPAN_M11,X2_M11,X0_M11,X1_M11
2023-10-05 19:00:00,SystemResetWarning,0837.5,5.00,000.00,028.6,027.1,000.0,037.1,030.3,18.1,0000.0,0003.67,0008.98,0003.17
2023-10-05 19:01:00,SystemResetWarning,0837.5,5.00,000.00,028.7,027.2,000.0,037.1,030.4,18.3,0000.0,0003.64,0008.37,0003.17
2023-10-05 19:02:00,SystemResetWarning,0837.6,5.00,000.00,028.7,027.4,000.0,037.1,030.5,18.3,0000.0,0003.61,0008.10,0003.17
2023-10-05 19:03:00,SystemResetWarning,0837.5,5.01,000.00,028.7,027.5,000.0,037.1,030.5,18.1,0000.0,0003.62,0008.16,0003.18
2023-10-05 19:04:00,SystemResetWarning,0837.5,4.99,000.00,028.8,027.6,000.0,037.2,030.5,18.2,0000.0,0003.59,0008.37,0003.16
2023-10-05 19:05:00,SystemResetWarning,0837.5,4.99,000.00,028.8,027.6,000.0,037.2,030.5,17.9,0000.0,0003.57,0008.28,0003.18
2023-10-05 19:06:00,SystemResetWarning,0837.5,4.99,000.00,028.8,027.5,000.0,037.2,030.6,17.8,0000.0,0003.56,0008.58,0003.19
2023-10-05 19:07:00,SystemResetWarning,0837.4,5.00,000.00,028.8,025.9,000.0,037.1,030.5,17.8,0000.0,0003.56,0008.58,0003.19
2023-10-05 19:08:00,SystemResetWarning,0837.4,5.01,000.00,028.7,025.1,000.0,037.1,030.4,17.8,0000.0,0003.54,0008.59,0003.19
2023-10-05 19:09:00,SystemResetWarning,0837.4,5.02,000.00,028.7,025.2,000.0,037.1,030.2,17.9,0000.0,0003.56,0009.59,0003.20
2023-10-05 19:10:00,SystemResetWarning,0837.4,4.99,000.00,028.6,025.5,000.0,037.1,030.1,18.0,0000.0,0003.60,0009.55,0003.20
2023-10-05 19:11:00,SystemResetWarning,0837.2,4.99,000.00,028.6,025.8,000.0,037.1,030.1,18.1,0000.0,0003.60,0008.96,0003.21
2023-10-05 19:12:00,SystemResetWarning,0837.2,5.00,000.00,028.5,026.1,000.0,037.1,030.2,18.2,0000.0,0003.61,0009.04,0003.22
2023-10-05 19:13:00,SystemResetWarning,0837.2,5.00,000.00,028.6,026.4,000.0,037.1,030.2,17.9,0000.0,0003.63,0010.08,0003.23
2023-10-05 19:14:00,SystemResetWarning,0837.2,5.00,000.00,028.6,026.7,000.0,037.1,030.3,17.7,0000.0,0003.62,0010.40,0003.20
2023-10-05 19:15:00,SystemResetWarning,0837.2,5.00,000.00,028.6,026.9,000.0,037.1,030.3,17.6,0000.0,0003.62,0009.94,0003.20
2023-10-05 19:16:00,SystemResetWarning,0837.2,4.99,000.00,028.6,027.1,000.0,037.1,030.4,17.5,0000.0,0003.67,0010.20,0003.21
2023-10-05 19:17:00,SystemResetWarning,0837.2,4.99,000.00,028.7,027.2,000.0,037.1,030.4,17.7,0000.0,0003.70,0010.81,0003.20
2023-10-05 19:18:00,SystemResetWarning,0837.2,5.00,000.00,028.7,027.4,000.0,037.1,030.4,17.7,0000.0,0003.68,0011.25,0003.19
2023-10-05 19:19:00,SystemResetWarning,0837.1,5.01,000.00,028.7,027.5,000.0,037.1,030.5,17.6,0000.0,0003.68,0011.78,0003.18
2023-10-05 19:20:00,SystemResetWarning,0837.1,5.01,000.00,028.7,027.6,000.0,037.1,030.5,17.5,0000.0,0003.67,0012.05,0003.17
2023-10-05 19:21:00,SystemResetWarning,0837.1,5.00,000.00,028.8,027.7,000.0,037.2,030.5,17.4,0000.0,0003.65,0011.72,0003.17
2023-10-05 19:22:00,SystemResetWarning,0837.0,4.98,000.00,028.8,026.7,000.0,037.2,030.5,17.5,0000.0,0003.67,0011.88,0003.17
2023-10-05 19:23:00,SystemResetWarning,0837.0,5.00,000.00,028.7,024.7,000.0,037.1,030.2,17.3,0000.0,0003.73,0012.54,0003.18
2023-10-05 19:24:00,SystemResetWarning,0837.0,5.00,000.00,028.6,024.0,000.0,037.0,030.0,17.2,0000.0,0003.79,0013.63,0003.20
2023-10-05 19:25:00,SystemResetWarning,0836.9,5.01,000.00,028.5,024.2,000.0,036.9,029.8,17.1,0000.0,0003.77,0012.99,0003.20
2023-10-05 19:26:00,SystemResetWarning,0837.0,5.01,000.00,028.4,024.6,000.0,036.9,029.8,17.1,0000.0,0003.81,0012.85,0003.21
2023-10-05 19:27:00,SystemResetWarning,0836.9,4.99,000.00,028.3,025.1,000.0,036.9,029.8,17.4,0000.0,0003.79,0012.89,0003.20
2023-10-05 19:28:00,SystemResetWarning,0836.9,5.01,000.00,028.3,025.5,000.0,036.9,029.9,17.6,0000.0,0003.74,0012.15,0003.19
2023-10-05 19:29:00,SystemResetWarning,0836.8,5.00,000.00,028.3,025.9,000.0,036.9,029.9,17.5,0000.0,0003.74,0011.35,0003.18
2023-10-05 19:30:00,SystemResetWarning,0836.8,5.00,000.00,028.3,026.2,000.0,036.9,030.0,17.6,0000.0,0003.77,0011.14,0003.19
2023-10-05 19:31:00,SystemResetWarning,0836.8,5.00,000.00,028.4,026.4,000.0,036.9,030.1,17.8,0000.0,0003.77,0010.32,0003.19
2023-10-05 19:32:00,SystemResetWarning,0836.7,5.00,000.00,028.4,026.7,000.0,036.9,030.1,17.6,0000.0,0003.76,0009.95,0003.18
2023-10-05 19:33:00,SystemResetWarning,0836.8,5.00,000.00,028.4,026.9,000.0,036.9,030.2,17.6,0000.0,0003.75,0011.25,0003.17
2023-10-05 19:34:00,SystemResetWarning,0836.7,5.00,000.00,028.4,027.0,000.0,036.9,030.2,17.5,0000.0,0003.72,0011.29,0003.15
2023-10-05 19:35:00,SystemResetWarning,0836.7,4.99,000.00,028.5,027.2,000.0,036.9,030.2,17.5,0000.0,0003.66,0009.64,0003.13
2023-10-05 19:36:00,SystemResetWarning,0836.7,5.00,000.00,028.5,027.3,000.0,036.9,030.3,17.6,0000.0,0003.68,0009.25,0003.13
2023-10-05 19:37:00,SystemResetWarning,0836.6,5.01,000.00,028.5,027.4,000.0,037.0,030.3,17.4,0000.0,0003.64,0009.14,0003.12
2023-10-05 19:38:00,SystemResetWarning,0836.6,5.01,000.00,028.6,027.5,000.0,037.0,030.4,17.3,0000.0,0003.62,0009.11,0003.11
2023-10-05 19:39:00,SystemResetWarning,0836.6,5.00,000.00,028.6,027.6,000.0,037.0,030.4,17.3,0000.0,0003.64,0009.62,0003.10
2023-10-05 19:40:00,SystemResetWarning,0836.6,4.99,000.00,028.7,027.7,000.0,037.0,030.5,17.4,0000.0,0003.63,0009.58,0003.08
2023-10-05 19:41:00,SystemResetWarning,0836.6,4.99,000.00,028.7,027.7,000.0,037.1,030.5,17.5,0000.0,0003.62,0009.59,0003.06
2023-10-05 19:42:00,SystemResetWarning,0836.6,5.00,000.00,028.7,026.2,000.0,037.0,030.4,17.5,0000.0,0003.65,0010.57,0003.06
2023-10-05 19:43:00,SystemResetWarning,0836.5,5.01,000.00,028.7,025.0,000.0,037.0,030.3,17.3,0000.0,0003.68,0011.33,0003.05
2023-10-05 19:44:00,SystemResetWarning,0836.5,5.01,000.00,028.6,025.0,000.0,036.9,030.1,17.2,0000.0,0003.69,0010.88,0003.04
2023-10-05 19:45:00,SystemResetWarning,0836.5,5.00,000.00,028.5,025.3,000.0,036.9,030.0,17.4,0000.0,0003.67,0010.40,0003.05
2023-10-05 19:46:00,SystemResetWarning,0836.4,5.00,000.00,028.5,025.6,000.0,037.0,030.0,17.3,0000.0,0003.65,0010.30,0003.06
2023-10-05 19:47:00,SystemResetWarning,0836.4,5.00,000.00,028.5,026.0,000.0,037.0,030.1,17.2,0000.0,0003.63,0010.42,0003.07
2023-10-05 19:48:00,SystemResetWarning,0836.4,5.00,000.00,028.5,026.3,000.0,037.0,030.1,17.2,0000.0,0003.67,0011.19,0003.07
2023-10-05 19:49:00,SystemResetWarning,0836.4,4.99,000.00,028.5,026.6,000.0,037.0,030.2,17.1,0000.0,0003.71,0012.17,0003.08
2023-10-05 19:50:00,SystemResetWarning,0836.4,4.99,000.00,028.5,026.8,000.0,037.0,030.2,16.8,0000.0,0003.78,0012.81,0003.09
2023-10-05 19:51:00,SystemResetWarning,0836.4,5.00,000.00,028.5,027.0,000.0,037.0,030.3,16.8,0000.0,0003.79,0013.19,0003.10
2023-10-05 19:52:00,SystemResetWarning,0836.4,5.00,000.00,028.6,027.2,000.0,037.0,030.3,16.8,0000.0,0003.77,0013.03,0003.11
2023-10-05 19:53:00,SystemResetWarning,0836.4,5.01,000.00,028.6,027.3,000.0,037.0,030.4,16.8,0000.0,0003.76,0012.75,0003.11
2023-10-05 19:54:00,SystemResetWarning,0836.3,5.00,000.00,028.6,027.4,000.0,037.0,030.4,16.8,0000.0,0003.77,0013.25,0003.10
2023-10-05 19:55:00,SystemResetWarning,0836.2,5.00,000.00,028.7,027.5,000.0,037.0,030.4,16.8,0000.0,0003.75,0012.86,0003.08
2023-10-05 19:56:00,SystemResetWarning,0836.3,5.01,000.00,028.7,027.6,000.0,037.1,030.5,16.7,0000.0,0003.75,0012.70,0003.05
2023-10-05 19:57:00,SystemResetWarning,0836.2,4.99,000.00,028.7,027.1,000.0,037.1,030.5,16.7,0000.0,0003.74,0012.61,0003.00
2023-10-05 19:58:00,SystemResetWarning,0836.2,5.00,000.00,028.7,025.4,000.0,037.0,030.3,16.7,0000.0,0003.74,0012.61,0002.95
2023-10-05 19:59:00,SystemResetWarning,0836.2,5.01,000.00,028.6,025.0,000.0,036.9,030.2,17.0,0000.0,0003.73,0012.54,0002.93
